Year,Month,Day,Hour,Minute,Value (Times are PST for temperature in C)
2009,09,12,00,00,14.20
2009,09,12,00,01,14.20
2009,09,12,00,02,14.20
2009,09,12,00,03,14.10
2009,09,12,00,04,14.10
2009,09,12,00,05,14.10
2009,09,12,00,06,14.10
2009,09,12,00,07,14.10
2009,09,12,00,08,14.10
2009,09,12,00,09,14.10
2009,09,12,00,10,14.10
2009,09,12,00,11,14.10
2009,09,12,00,12,14.10
2009,09,12,00,13,14.00
2009,09,12,00,14,14.00
2009,09,12,00,15,14.00
2009,09,12,00,16,14.00
2009,09,12,00,17,14.00
2009,09,12,00,18,14.00
2009,09,12,00,19,14.00
2009,09,12,00,20,14.00
2009,09,12,00,21,14.00
2009,09,12,00,22,14.00
2009,09,12,00,23,13.90
2009,09,12,00,24,13.90
2009,09,12,00,25,13.90
2009,09,12,00,26,13.90
2009,09,12,00,27,13.90
2009,09,12,00,28,13.90
2009,09,12,00,29,13.90
2009,09,12,00,30,13.90
2009,09,12,00,31,13.90
2009,09,12,00,32,13.90
2009,09,12,00,33,13.80
2009,09,12,00,34,13.80
2009,09,12,00,35,13.80
2009,09,12,00,36,13.80
2009,09,12,00,37,13.80
2009,09,12,00,38,13.80
2009,09,12,00,39,13.80
2009,09,12,00,40,13.70
2009,09,12,00,41,13.70
2009,09,12,00,42,13.70
2009,09,12,00,43,13.70
2009,09,12,00,44,13.70
2009,09,12,00,45,13.70
2009,09,12,00,46,13.70
2009,09,12,00,47,13.70
2009,09,12,00,48,13.70
2009,09,12,00,49,13.70
2009,09,12,00,50,13.70
2009,09,12,00,51,13.70
2009,09,12,00,52,13.70
2009,09,12,00,53,13.70
2009,09,12,00,54,13.70
2009,09,12,00,55,13.70
2009,09,12,00,56,13.70
2009,09,12,00,57,13.70
2009,09,12,00,58,13.70
2009,09,12,00,59,13.70
2009,09,12,01,00,13.70
2009,09,12,01,01,13.70
2009,09,12,01,02,13.70
2009,09,12,01,03,13.70
2009,09,12,01,04,13.70
2009,09,12,01,05,13.70
2009,09,12,01,06,13.70
2009,09,12,01,07,13.70
2009,09,12,01,08,13.70
2009,09,12,01,09,13.70
2009,09,12,01,10,13.70
2009,09,12,01,11,13.70
2009,09,12,01,12,13.70
2009,09,12,01,13,13.70
2009,09,12,01,14,13.70
2009,09,12,01,15,13.70
2009,09,12,01,16,13.70
2009,09,12,01,17,13.70
2009,09,12,01,18,13.70
2009,09,12,01,19,13.70
2009,09,12,01,20,13.70
2009,09,12,01,21,13.70
2009,09,12,01,22,13.70
2009,09,12,01,23,13.70
2009,09,12,01,24,13.70
2009,09,12,01,25,13.70
2009,09,12,01,26,13.70
2009,09,12,01,27,13.70
2009,09,12,01,28,13.70
2009,09,12,01,29,13.70
2009,09,12,01,30,13.70
2009,09,12,01,31,13.70
2009,09,12,01,32,13.70
2009,09,12,01,33,13.70
2009,09,12,01,34,13.70
2009,09,12,01,35,13.70
2009,09,12,01,36,13.70
2009,09,12,01,37,13.70
2009,09,12,01,38,13.70
2009,09,12,01,39,13.70
2009,09,12,01,40,13.70
2009,09,12,01,41,13.70
2009,09,12,01,42,13.70
2009,09,12,01,43,13.70
2009,09,12,01,44,13.70
2009,09,12,01,45,13.70
2009,09,12,01,46,13.70
2009,09,12,01,47,13.70
2009,09,12,01,48,13.70
2009,09,12,01,49,13.70
2009,09,12,01,50,13.70
2009,09,12,01,51,13.70
2009,09,12,01,52,13.70
2009,09,12,01,53,13.70
2009,09,12,01,54,13.70
2009,09,12,01,55,13.70
2009,09,12,01,56,13.70
2009,09,12,01,57,13.70
2009,09,12,01,58,13.60
2009,09,12,01,59,13.60
2009,09,12,02,00,13.60
2009,09,12,02,01,13.60
2009,09,12,02,02,13.60
2009,09,12,02,03,13.60
2009,09,12,02,04,13.60
2009,09,12,02,05,13.50
2009,09,12,02,06,13.50
2009,09,12,02,07,13.50
2009,09,12,02,08,13.50
2009,09,12,02,09,13.50
2009,09,12,02,10,13.40
2009,09,12,02,11,13.40
2009,09,12,02,12,13.40
2009,09,12,02,13,13.40
2009,09,12,02,14,13.40
2009,09,12,02,15,13.40
2009,09,12,02,16,13.40
2009,09,12,02,17,13.40
2009,09,12,02,18,13.40
2009,09,12,02,19,13.40
2009,09,12,02,20,13.30
2009,09,12,02,21,13.30
2009,09,12,02,22,13.30
2009,09,12,02,23,13.30
2009,09,12,02,24,13.30
2009,09,12,02,25,13.30
2009,09,12,02,26,13.30
2009,09,12,02,27,13.30
2009,09,12,02,28,13.30
2009,09,12,02,29,13.30
2009,09,12,02,30,13.30
2009,09,12,02,31,13.30
2009,09,12,02,32,13.30
2009,09,12,02,33,13.30
2009,09,12,02,34,13.30
2009,09,12,02,35,13.30
2009,09,12,02,36,13.30
2009,09,12,02,37,13.30
2009,09,12,02,38,13.20
2009,09,12,02,39,13.20
2009,09,12,02,40,13.20
2009,09,12,02,41,13.20
2009,09,12,02,42,13.20
2009,09,12,02,43,13.20
2009,09,12,02,44,13.10
2009,09,12,02,45,13.10
2009,09,12,02,46,13.10
2009,09,12,02,47,13.10
2009,09,12,02,48,13.10
2009,09,12,02,49,13.10
2009,09,12,02,50,13.10
2009,09,12,02,51,13.10
2009,09,12,02,52,13.10
2009,09,12,02,53,13.10
2009,09,12,02,54,13.10
2009,09,12,02,55,13.10
2009,09,12,02,56,13.10
2009,09,12,02,57,13.10
2009,09,12,02,58,13.10
2009,09,12,02,59,13.10
2009,09,12,03,00,13.10
2009,09,12,03,01,13.10
2009,09,12,03,02,13.10
2009,09,12,03,03,13.00
2009,09,12,03,04,13.00
2009,09,12,03,05,13.00
2009,09,12,03,06,13.00
2009,09,12,03,07,13.00
2009,09,12,03,08,13.00
2009,09,12,03,09,13.00
2009,09,12,03,10,13.00
2009,09,12,03,11,13.00
2009,09,12,03,12,13.00
2009,09,12,03,13,13.00
2009,09,12,03,14,12.90
2009,09,12,03,15,12.90
2009,09,12,03,16,12.90
2009,09,12,03,17,12.90
2009,09,12,03,18,12.90
2009,09,12,03,19,12.90
2009,09,12,03,20,12.90
2009,09,12,03,21,12.90
2009,09,12,03,22,12.90
2009,09,12,03,23,12.90
2009,09,12,03,24,12.90
2009,09,12,03,25,12.90
2009,09,12,03,26,12.90
2009,09,12,03,27,12.90
2009,09,12,03,28,12.80
2009,09,12,03,29,12.80
2009,09,12,03,30,12.80
2009,09,12,03,31,12.80
2009,09,12,03,32,12.80
2009,09,12,03,33,12.80
2009,09,12,03,34,12.70
2009,09,12,03,35,12.70
2009,09,12,03,36,12.70
2009,09,12,03,37,12.70
2009,09,12,03,38,12.70
2009,09,12,03,39,12.70
2009,09,12,03,40,12.70
2009,09,12,03,41,12.70
2009,09,12,03,42,12.70
2009,09,12,03,43,12.60
2009,09,12,03,44,12.60
2009,09,12,03,45,12.60
2009,09,12,03,46,12.60
2009,09,12,03,47,12.60
2009,09,12,03,48,12.50
2009,09,12,03,49,12.50
2009,09,12,03,50,12.50
2009,09,12,03,51,12.50
2009,09,12,03,52,12.50
2009,09,12,03,53,12.40
2009,09,12,03,54,12.40
2009,09,12,03,55,12.40
2009,09,12,03,56,12.40
2009,09,12,03,57,12.30
2009,09,12,03,58,12.30
2009,09,12,03,59,12.30
2009,09,12,04,00,12.30
2009,09,12,04,01,12.30
2009,09,12,04,02,12.30
2009,09,12,04,03,12.30
2009,09,12,04,04,12.30
2009,09,12,04,05,12.30
2009,09,12,04,06,12.30
2009,09,12,04,07,12.20
2009,09,12,04,08,12.20
2009,09,12,04,09,12.20
2009,09,12,04,10,12.20
2009,09,12,04,11,12.20
2009,09,12,04,12,12.20
2009,09,12,04,13,12.10
2009,09,12,04,14,12.10
2009,09,12,04,15,12.10
2009,09,12,04,16,12.10
2009,09,12,04,17,12.00
2009,09,12,04,18,12.00
2009,09,12,04,19,12.00
2009,09,12,04,20,12.00
2009,09,12,04,21,12.00
2009,09,12,04,22,12.00
2009,09,12,04,23,12.00
2009,09,12,04,24,12.00
2009,09,12,04,25,12.00
2009,09,12,04,26,12.00
2009,09,12,04,27,12.00
2009,09,12,04,28,12.00
2009,09,12,04,29,12.00
2009,09,12,04,30,12.00
2009,09,12,04,31,11.90
2009,09,12,04,32,11.90
2009,09,12,04,33,11.90
2009,09,12,04,34,11.90
2009,09,12,04,35,11.90
2009,09,12,04,36,11.90
2009,09,12,04,37,11.90
2009,09,12,04,38,11.90
2009,09,12,04,39,11.90
2009,09,12,04,40,11.90
2009,09,12,04,41,11.90
2009,09,12,04,42,11.90
2009,09,12,04,43,11.90
2009,09,12,04,44,11.90
2009,09,12,04,45,11.90
2009,09,12,04,46,11.90
2009,09,12,04,47,11.90
2009,09,12,04,48,11.90
2009,09,12,04,49,11.90
2009,09,12,04,50,11.90
2009,09,12,04,51,11.90
2009,09,12,04,52,11.90
2009,09,12,04,53,11.90
2009,09,12,04,54,11.90
2009,09,12,04,55,11.90
2009,09,12,04,56,11.90
2009,09,12,04,57,11.90
2009,09,12,04,58,11.80
2009,09,12,04,59,11.80
2009,09,12,05,00,11.80
2009,09,12,05,01,11.90
2009,09,12,05,02,11.90
2009,09,12,05,03,11.90
2009,09,12,05,04,11.90
2009,09,12,05,05,11.90
2009,09,12,05,06,11.90
2009,09,12,05,07,11.80
2009,09,12,05,08,11.80
2009,09,12,05,09,11.80
2009,09,12,05,10,11.80
2009,09,12,05,11,11.80
2009,09,12,05,12,11.80
2009,09,12,05,13,11.80
2009,09,12,05,14,11.80
2009,09,12,05,15,11.80
2009,09,12,05,16,11.80
2009,09,12,05,17,11.80
2009,09,12,05,18,11.80
2009,09,12,05,19,11.80
2009,09,12,05,20,11.70
2009,09,12,05,21,11.70
2009,09,12,05,22,11.70
2009,09,12,05,23,11.70
2009,09,12,05,24,11.70
2009,09,12,05,25,11.70
2009,09,12,05,26,11.70
2009,09,12,05,27,11.70
2009,09,12,05,28,11.70
2009,09,12,05,29,11.70
2009,09,12,05,30,11.70
2009,09,12,05,31,11.70
2009,09,12,05,32,11.60
2009,09,12,05,33,11.60
2009,09,12,05,34,11.60
2009,09,12,05,35,11.60
2009,09,12,05,36,11.60
2009,09,12,05,37,11.60
2009,09,12,05,38,11.60
2009,09,12,05,39,11.60
2009,09,12,05,40,11.70
2009,09,12,05,41,11.70
2009,09,12,05,42,11.70
2009,09,12,05,43,11.70
2009,09,12,05,44,11.70
2009,09,12,05,45,11.80
2009,09,12,05,46,11.80
2009,09,12,05,47,11.80
2009,09,12,05,48,11.80
2009,09,12,05,49,11.80
2009,09,12,05,50,11.80
2009,09,12,05,51,11.80
2009,09,12,05,52,11.80
2009,09,12,05,53,11.80
2009,09,12,05,54,11.80
2009,09,12,05,55,11.80
2009,09,12,05,56,11.80
2009,09,12,05,57,11.80
2009,09,12,05,58,11.80
2009,09,12,05,59,11.80
2009,09,12,06,00,11.80
2009,09,12,06,01,11.80
2009,09,12,06,02,11.80
2009,09,12,06,03,11.80
2009,09,12,06,04,11.80
2009,09,12,06,05,11.80
2009,09,12,06,06,11.80
2009,09,12,06,07,11.80
2009,09,12,06,08,11.80
2009,09,12,06,09,11.80
2009,09,12,06,10,11.80
2009,09,12,06,11,11.70
2009,09,12,06,12,11.70
2009,09,12,06,13,11.70
2009,09,12,06,14,11.70
2009,09,12,06,15,11.70
2009,09,12,06,16,11.70
2009,09,12,06,17,11.70
2009,09,12,06,18,11.70
2009,09,12,06,19,11.80
2009,09,12,06,20,11.80
2009,09,12,06,21,11.80
2009,09,12,06,22,11.80
2009,09,12,06,23,11.80
2009,09,12,06,24,11.80
2009,09,12,06,25,11.80
2009,09,12,06,26,11.80
2009,09,12,06,27,11.80
2009,09,12,06,28,11.80
2009,09,12,06,29,11.80
2009,09,12,06,30,11.80
2009,09,12,06,31,11.70
2009,09,12,06,32,11.70
2009,09,12,06,33,11.70
2009,09,12,06,34,11.70
2009,09,12,06,35,11.70
2009,09,12,06,36,11.70
2009,09,12,06,37,11.70
2009,09,12,06,38,11.60
2009,09,12,06,39,11.60
2009,09,12,06,40,11.60
2009,09,12,06,41,11.60
2009,09,12,06,42,11.60
2009,09,12,06,43,11.60
2009,09,12,06,44,11.60
2009,09,12,06,45,11.60
2009,09,12,06,46,11.60
2009,09,12,06,47,11.60
2009,09,12,06,48,11.60
2009,09,12,06,49,11.60
2009,09,12,06,50,11.60
2009,09,12,06,51,11.60
2009,09,12,06,52,11.60
2009,09,12,06,53,11.60
2009,09,12,06,54,11.60
2009,09,12,06,55,11.60
2009,09,12,06,56,11.50
2009,09,12,06,57,11.60
2009,09,12,06,58,11.60
2009,09,12,06,59,11.60
2009,09,12,07,00,11.60
2009,09,12,07,01,11.60
2009,09,12,07,02,11.60
2009,09,12,07,03,11.60
2009,09,12,07,04,11.60
2009,09,12,07,05,11.60
2009,09,12,07,06,11.60
2009,09,12,07,07,11.60
2009,09,12,07,08,11.60
2009,09,12,07,09,11.60
2009,09,12,07,10,11.60
2009,09,12,07,11,11.60
2009,09,12,07,12,11.60
2009,09,12,07,13,11.60
2009,09,12,07,14,11.60
2009,09,12,07,15,11.60
2009,09,12,07,16,11.60
2009,09,12,07,17,11.60
2009,09,12,07,18,11.70
2009,09,12,07,19,11.70
2009,09,12,07,20,11.70
2009,09,12,07,21,11.80
2009,09,12,07,22,11.80
2009,09,12,07,23,11.80
2009,09,12,07,24,11.80
2009,09,12,07,25,11.80
2009,09,12,07,26,11.80
2009,09,12,07,27,11.80
2009,09,12,07,28,11.80
2009,09,12,07,29,11.80
2009,09,12,07,30,11.80
2009,09,12,07,31,11.80
2009,09,12,07,32,11.80
2009,09,12,07,33,11.80
2009,09,12,07,34,11.80
2009,09,12,07,35,11.90
2009,09,12,07,36,11.90
2009,09,12,07,37,11.90
2009,09,12,07,38,12.00
2009,09,12,07,39,12.00
2009,09,12,07,40,12.10
2009,09,12,07,41,12.10
2009,09,12,07,42,12.20
2009,09,12,07,43,12.20
2009,09,12,07,44,12.30
2009,09,12,07,45,12.30
2009,09,12,07,46,12.30
2009,09,12,07,47,12.40
2009,09,12,07,48,12.50
2009,09,12,07,49,12.50
2009,09,12,07,50,12.60
2009,09,12,07,51,12.70
2009,09,12,07,52,12.70
2009,09,12,07,53,12.80
2009,09,12,07,54,12.90
2009,09,12,07,55,12.90
2009,09,12,07,56,13.00
2009,09,12,07,57,13.10
2009,09,12,07,58,13.10
2009,09,12,07,59,13.20
2009,09,12,08,00,13.30
2009,09,12,08,01,13.30
2009,09,12,08,02,13.40
2009,09,12,08,03,13.50
2009,09,12,08,04,13.50
2009,09,12,08,05,13.60
2009,09,12,08,06,13.70
2009,09,12,08,07,13.70
2009,09,12,08,08,13.80
2009,09,12,08,09,13.90
2009,09,12,08,10,14.00
2009,09,12,08,11,14.00
2009,09,12,08,12,14.10
2009,09,12,08,13,14.20
2009,09,12,08,14,14.30
2009,09,12,08,15,14.50
2009,09,12,08,16,14.60
2009,09,12,08,17,14.70
2009,09,12,08,18,14.80
2009,09,12,08,19,14.80
2009,09,12,08,20,14.90
2009,09,12,08,21,15.00
2009,09,12,08,22,15.10
2009,09,12,08,23,15.20
2009,09,12,08,24,15.30
2009,09,12,08,25,15.50
2009,09,12,08,26,15.60
2009,09,12,08,27,15.70
2009,09,12,08,28,15.80
2009,09,12,08,29,16.00
2009,09,12,08,30,16.10
2009,09,12,08,31,16.20
2009,09,12,08,32,16.30
2009,09,12,08,33,16.40
2009,09,12,08,34,16.60
2009,09,12,08,35,16.70
2009,09,12,08,36,16.80
2009,09,12,08,37,16.90
2009,09,12,08,38,17.00
2009,09,12,08,39,17.10
2009,09,12,08,40,17.20
2009,09,12,08,41,17.30
2009,09,12,08,42,17.40
2009,09,12,08,43,17.50
2009,09,12,08,44,17.60
2009,09,12,08,45,17.70
2009,09,12,08,46,17.70
2009,09,12,08,47,17.80
2009,09,12,08,48,17.90
2009,09,12,08,49,17.90
2009,09,12,08,50,18.00
2009,09,12,08,51,18.10
2009,09,12,08,52,18.20
2009,09,12,08,53,18.20
2009,09,12,08,54,18.30
2009,09,12,08,55,18.30
2009,09,12,08,56,18.40
2009,09,12,08,57,18.40
2009,09,12,08,58,18.50
2009,09,12,08,59,18.50
2009,09,12,09,00,18.60
2009,09,12,09,01,18.60
2009,09,12,09,02,18.70
2009,09,12,09,03,18.80
2009,09,12,09,04,18.90
2009,09,12,09,05,18.90
2009,09,12,09,06,18.90
2009,09,12,09,07,19.10
2009,09,12,09,08,19.10
2009,09,12,09,09,19.20
2009,09,12,09,10,19.20
2009,09,12,09,11,19.30
2009,09,12,09,12,19.40
2009,09,12,09,13,19.50
2009,09,12,09,14,19.50
2009,09,12,09,15,19.60
2009,09,12,09,16,19.70
2009,09,12,09,17,19.80
2009,09,12,09,18,19.90
2009,09,12,09,19,20.00
2009,09,12,09,20,20.10
2009,09,12,09,21,20.20
2009,09,12,09,22,20.20
2009,09,12,09,23,20.30
2009,09,12,09,24,20.40
2009,09,12,09,25,20.50
2009,09,12,09,26,20.60
2009,09,12,09,27,20.70
2009,09,12,09,28,20.80
2009,09,12,09,29,20.90
2009,09,12,09,30,21.00
2009,09,12,09,31,21.10
2009,09,12,09,32,21.20
2009,09,12,09,33,21.20
2009,09,12,09,34,21.20
2009,09,12,09,35,21.20
2009,09,12,09,36,21.20
2009,09,12,09,37,21.30
2009,09,12,09,38,21.30
2009,09,12,09,39,21.40
2009,09,12,09,40,21.60
2009,09,12,09,41,21.60
2009,09,12,09,42,21.70
2009,09,12,09,43,21.80
2009,09,12,09,44,21.80
2009,09,12,09,45,21.80
2009,09,12,09,46,21.80
2009,09,12,09,47,21.80
2009,09,12,09,48,21.90
2009,09,12,09,49,22.00
2009,09,12,09,50,22.10
2009,09,12,09,51,22.20
2009,09,12,09,52,22.30
2009,09,12,09,53,22.40
2009,09,12,09,54,22.50
2009,09,12,09,55,22.60
2009,09,12,09,56,22.60
2009,09,12,09,57,22.70
2009,09,12,09,58,22.80
2009,09,12,09,59,22.80
2009,09,12,10,00,22.90
2009,09,12,10,01,22.90
2009,09,12,10,02,22.90
2009,09,12,10,03,22.90
2009,09,12,10,04,22.90
2009,09,12,10,05,22.80
2009,09,12,10,06,22.80
2009,09,12,10,07,22.90
2009,09,12,10,08,22.90
2009,09,12,10,09,22.90
2009,09,12,10,10,22.90
2009,09,12,10,11,22.90
2009,09,12,10,12,22.90
2009,09,12,10,13,22.90
2009,09,12,10,14,22.90
2009,09,12,10,15,22.90
2009,09,12,10,16,23.10
2009,09,12,10,17,23.10
2009,09,12,10,18,23.20
2009,09,12,10,19,23.20
2009,09,12,10,20,23.20
2009,09,12,10,21,23.20
2009,09,12,10,22,23.30
2009,09,12,10,23,23.30
2009,09,12,10,24,23.30
2009,09,12,10,25,23.30
2009,09,12,10,26,23.30
2009,09,12,10,27,23.30
2009,09,12,10,28,23.30
2009,09,12,10,29,23.30
2009,09,12,10,30,23.30
2009,09,12,10,31,23.30
2009,09,12,10,32,23.30
2009,09,12,10,33,23.00
2009,09,12,10,34,22.70
2009,09,12,10,35,22.60
2009,09,12,10,36,22.50
2009,09,12,10,37,22.40
2009,09,12,10,38,22.40
2009,09,12,10,39,22.40
2009,09,12,10,40,22.40
2009,09,12,10,41,22.50
2009,09,12,10,42,22.50
2009,09,12,10,43,22.50
2009,09,12,10,44,22.50
2009,09,12,10,45,22.50
2009,09,12,10,46,22.60
2009,09,12,10,47,22.70
2009,09,12,10,48,22.70
2009,09,12,10,49,22.80
2009,09,12,10,50,22.80
2009,09,12,10,51,22.70
2009,09,12,10,52,22.70
2009,09,12,10,53,22.60
2009,09,12,10,54,22.50
2009,09,12,10,55,22.40
2009,09,12,10,56,22.30
2009,09,12,10,57,22.30
2009,09,12,10,58,22.30
2009,09,12,10,59,22.40
2009,09,12,11,00,22.30
2009,09,12,11,01,22.30
2009,09,12,11,02,22.20
2009,09,12,11,03,22.20
2009,09,12,11,04,22.30
2009,09,12,11,05,22.30
2009,09,12,11,06,22.30
2009,09,12,11,07,22.30
2009,09,12,11,08,22.30
2009,09,12,11,09,22.40
2009,09,12,11,10,22.40
2009,09,12,11,11,22.40
2009,09,12,11,12,22.50
2009,09,12,11,13,22.50
2009,09,12,11,14,22.60
2009,09,12,11,15,22.50
2009,09,12,11,16,22.40
2009,09,12,11,17,22.40
2009,09,12,11,18,22.40
2009,09,12,11,19,22.30
2009,09,12,11,20,22.30
2009,09,12,11,21,22.20
2009,09,12,11,22,22.20
2009,09,12,11,23,22.20
2009,09,12,11,24,22.20
2009,09,12,11,25,22.30
2009,09,12,11,26,22.30
2009,09,12,11,27,22.30
2009,09,12,11,28,22.30
2009,09,12,11,29,22.30
2009,09,12,11,30,22.20
2009,09,12,11,31,22.20
2009,09,12,11,32,22.20
2009,09,12,11,33,22.30
2009,09,12,11,34,22.40
2009,09,12,11,35,22.50
2009,09,12,11,36,22.60
2009,09,12,11,37,22.60
2009,09,12,11,38,22.60
2009,09,12,11,39,22.60
2009,09,12,11,40,22.60
2009,09,12,11,41,22.80
2009,09,12,11,42,22.90
2009,09,12,11,43,22.90
2009,09,12,11,44,22.90
2009,09,12,11,45,22.90
2009,09,12,11,46,22.70
2009,09,12,11,47,22.70
2009,09,12,11,48,22.60
2009,09,12,11,49,22.60
2009,09,12,11,50,22.70
2009,09,12,11,51,22.80
2009,09,12,11,52,22.90
2009,09,12,11,53,23.10
2009,09,12,11,54,23.20
2009,09,12,11,55,23.20
2009,09,12,11,56,23.20
2009,09,12,11,57,23.20
2009,09,12,11,58,23.20
2009,09,12,11,59,23.20
2009,09,12,12,00,23.20
2009,09,12,12,01,23.20
2009,09,12,12,02,23.20
2009,09,12,12,03,23.30
2009,09,12,12,04,23.30
2009,09,12,12,05,23.30
2009,09,12,12,06,23.30
2009,09,12,12,07,23.30
2009,09,12,12,08,23.50
2009,09,12,12,09,23.50
2009,09,12,12,10,23.40
2009,09,12,12,11,23.30
2009,09,12,12,12,23.30
2009,09,12,12,13,23.30
2009,09,12,12,14,23.30
2009,09,12,12,15,23.30
2009,09,12,12,16,23.30
2009,09,12,12,17,23.40
2009,09,12,12,18,23.60
2009,09,12,12,19,23.80
2009,09,12,12,20,23.90
2009,09,12,12,21,24.10
2009,09,12,12,22,24.20
2009,09,12,12,23,24.20
2009,09,12,12,24,24.30
2009,09,12,12,25,24.40
2009,09,12,12,26,24.50
2009,09,12,12,27,24.60
2009,09,12,12,28,24.60
2009,09,12,12,29,24.70
2009,09,12,12,30,24.80
2009,09,12,12,31,24.80
2009,09,12,12,32,24.70
2009,09,12,12,33,24.70
2009,09,12,12,34,24.70
2009,09,12,12,35,24.70
2009,09,12,12,36,24.70
2009,09,12,12,37,24.70
2009,09,12,12,38,24.60
2009,09,12,12,39,24.40
2009,09,12,12,40,24.10
2009,09,12,12,41,23.90
2009,09,12,12,42,23.80
2009,09,12,12,43,23.70
2009,09,12,12,44,23.70
2009,09,12,12,45,23.70
2009,09,12,12,46,23.70
2009,09,12,12,47,23.70
2009,09,12,12,48,23.70
2009,09,12,12,49,23.70
2009,09,12,12,50,23.60
2009,09,12,12,51,23.50
2009,09,12,12,52,23.40
2009,09,12,12,53,23.40
2009,09,12,12,54,23.50
2009,09,12,12,55,23.60
2009,09,12,12,56,23.60
2009,09,12,12,57,23.70
2009,09,12,12,58,23.70
2009,09,12,12,59,23.70
2009,09,12,13,00,23.60
2009,09,12,13,01,23.60
2009,09,12,13,02,23.60
2009,09,12,13,03,23.60
2009,09,12,13,04,23.70
2009,09,12,13,05,23.70
2009,09,12,13,06,23.90
2009,09,12,13,07,24.00
2009,09,12,13,08,24.10
2009,09,12,13,09,24.20
2009,09,12,13,10,24.20
2009,09,12,13,11,24.20
2009,09,12,13,12,24.10
2009,09,12,13,13,24.10
2009,09,12,13,14,24.00
2009,09,12,13,15,23.90
2009,09,12,13,16,23.80
2009,09,12,13,17,23.80
2009,09,12,13,18,23.70
2009,09,12,13,19,23.70
2009,09,12,13,20,23.70
2009,09,12,13,21,23.60
2009,09,12,13,22,23.60
2009,09,12,13,23,23.70
2009,09,12,13,24,23.70
2009,09,12,13,25,23.90
2009,09,12,13,26,24.10
2009,09,12,13,27,24.20
2009,09,12,13,28,24.30
2009,09,12,13,29,24.40
2009,09,12,13,30,24.40
2009,09,12,13,31,24.40
2009,09,12,13,32,24.40
2009,09,12,13,33,24.30
2009,09,12,13,34,24.20
2009,09,12,13,35,24.10
2009,09,12,13,36,24.10
2009,09,12,13,37,24.10
2009,09,12,13,38,24.10
2009,09,12,13,39,24.10
2009,09,12,13,40,24.20
2009,09,12,13,41,24.30
2009,09,12,13,42,24.40
2009,09,12,13,43,24.50
2009,09,12,13,44,24.70
2009,09,12,13,45,24.80
2009,09,12,13,46,25.00
2009,09,12,13,47,25.00
2009,09,12,13,48,25.10
2009,09,12,13,49,25.00
2009,09,12,13,50,25.00
2009,09,12,13,51,25.00
2009,09,12,13,52,25.10
2009,09,12,13,53,25.10
2009,09,12,13,54,25.00
2009,09,12,13,55,24.90
2009,09,12,13,56,24.70
2009,09,12,13,57,24.70
2009,09,12,13,58,24.80
2009,09,12,13,59,24.90
2009,09,12,14,00,25.00
2009,09,12,14,01,25.00
2009,09,12,14,02,25.20
2009,09,12,14,03,25.20
2009,09,12,14,04,25.30
2009,09,12,14,05,25.40
2009,09,12,14,06,25.30
2009,09,12,14,07,25.20
2009,09,12,14,08,25.20
2009,09,12,14,09,25.00
2009,09,12,14,10,25.00
2009,09,12,14,11,25.00
2009,09,12,14,12,25.00
2009,09,12,14,13,25.00
2009,09,12,14,14,24.90
2009,09,12,14,15,25.00
2009,09,12,14,16,25.20
2009,09,12,14,17,25.30
2009,09,12,14,18,25.40
2009,09,12,14,19,25.60
2009,09,12,14,20,25.70
2009,09,12,14,21,25.70
2009,09,12,14,22,25.80
2009,09,12,14,23,25.80
2009,09,12,14,24,25.80
2009,09,12,14,25,25.70
2009,09,12,14,26,25.60
2009,09,12,14,27,25.50
2009,09,12,14,28,25.60
2009,09,12,14,29,25.60
2009,09,12,14,30,25.60
2009,09,12,14,31,25.60
2009,09,12,14,32,25.60
2009,09,12,14,33,25.60
2009,09,12,14,34,25.60
2009,09,12,14,35,25.60
2009,09,12,14,36,25.70
2009,09,12,14,37,25.60
2009,09,12,14,38,25.50
2009,09,12,14,39,25.50
2009,09,12,14,40,25.50
2009,09,12,14,41,25.50
2009,09,12,14,42,25.60
2009,09,12,14,43,25.60
2009,09,12,14,44,25.50
2009,09,12,14,45,25.50
2009,09,12,14,46,25.50
2009,09,12,14,47,25.60
2009,09,12,14,48,25.70
2009,09,12,14,49,25.70
2009,09,12,14,50,25.70
2009,09,12,14,51,25.80
2009,09,12,14,52,25.80
2009,09,12,14,53,25.90
2009,09,12,14,54,25.90
2009,09,12,14,55,26.00
2009,09,12,14,56,26.10
2009,09,12,14,57,26.30
2009,09,12,14,58,26.40
2009,09,12,14,59,26.50
2009,09,12,15,00,26.60
2009,09,12,15,01,26.60
2009,09,12,15,02,26.70
2009,09,12,15,03,26.80
2009,09,12,15,04,26.90
2009,09,12,15,05,27.00
2009,09,12,15,06,27.10
2009,09,12,15,07,27.20
2009,09,12,15,08,27.20
2009,09,12,15,09,27.30
2009,09,12,15,10,27.30
2009,09,12,15,11,27.40
2009,09,12,15,12,27.40
2009,09,12,15,13,27.40
2009,09,12,15,14,27.50
2009,09,12,15,15,27.60
2009,09,12,15,16,27.70
2009,09,12,15,17,27.80
2009,09,12,15,18,27.90
2009,09,12,15,19,28.00
2009,09,12,15,20,28.00
2009,09,12,15,21,28.00
2009,09,12,15,22,28.00
2009,09,12,15,23,28.00
2009,09,12,15,24,28.00
2009,09,12,15,25,28.10
2009,09,12,15,26,28.10
2009,09,12,15,27,28.20
2009,09,12,15,28,28.20
2009,09,12,15,29,28.20
2009,09,12,15,30,28.10
2009,09,12,15,31,28.00
2009,09,12,15,32,27.90
2009,09,12,15,33,27.80
2009,09,12,15,34,27.80
2009,09,12,15,35,27.80
2009,09,12,15,36,27.80
2009,09,12,15,37,27.90
2009,09,12,15,38,27.90
2009,09,12,15,39,28.00
2009,09,12,15,40,28.00
2009,09,12,15,41,28.00
2009,09,12,15,42,28.00
2009,09,12,15,43,28.00
2009,09,12,15,44,28.10
2009,09,12,15,45,28.10
2009,09,12,15,46,28.10
2009,09,12,15,47,28.10
2009,09,12,15,48,28.10
2009,09,12,15,49,28.10
2009,09,12,15,50,28.20
2009,09,12,15,51,28.20
2009,09,12,15,52,28.20
2009,09,12,15,53,28.20
2009,09,12,15,54,28.20
2009,09,12,15,55,28.10
2009,09,12,15,56,28.00
2009,09,12,15,57,27.80
2009,09,12,15,58,27.70
2009,09,12,15,59,27.60
2009,09,12,16,00,27.60
2009,09,12,16,01,27.60
2009,09,12,16,02,27.70
2009,09,12,16,03,27.70
2009,09,12,16,04,27.70
2009,09,12,16,05,27.70
2009,09,12,16,06,27.60
2009,09,12,16,07,27.60
2009,09,12,16,08,27.60
2009,09,12,16,09,27.50
2009,09,12,16,10,27.40
2009,09,12,16,11,27.40
2009,09,12,16,12,27.40
2009,09,12,16,13,27.40
2009,09,12,16,14,27.30
2009,09,12,16,15,27.30
2009,09,12,16,16,27.30
2009,09,12,16,17,27.30
2009,09,12,16,18,27.30
2009,09,12,16,19,27.30
2009,09,12,16,20,27.30
2009,09,12,16,21,27.30
2009,09,12,16,22,27.30
2009,09,12,16,23,27.30
2009,09,12,16,24,27.30
2009,09,12,16,25,27.30
2009,09,12,16,26,27.20
2009,09,12,16,27,27.20
2009,09,12,16,28,27.10
2009,09,12,16,29,27.10
2009,09,12,16,30,26.90
2009,09,12,16,31,26.80
2009,09,12,16,32,26.80
2009,09,12,16,33,26.80
2009,09,12,16,34,26.80
2009,09,12,16,35,26.80
2009,09,12,16,36,26.70
2009,09,12,16,37,26.70
2009,09,12,16,38,26.70
2009,09,12,16,39,26.70
2009,09,12,16,40,26.70
2009,09,12,16,41,26.70
2009,09,12,16,42,26.60
2009,09,12,16,43,26.60
2009,09,12,16,44,26.60
2009,09,12,16,45,26.70
2009,09,12,16,46,26.70
2009,09,12,16,47,26.60
2009,09,12,16,48,26.70
2009,09,12,16,49,26.70
2009,09,12,16,50,26.70
2009,09,12,16,51,26.70
2009,09,12,16,52,26.80
2009,09,12,16,53,26.80
2009,09,12,16,54,26.80
2009,09,12,16,55,26.80
2009,09,12,16,56,26.80
2009,09,12,16,57,26.80
2009,09,12,16,58,26.70
2009,09,12,16,59,26.70
2009,09,12,17,00,26.60
2009,09,12,17,01,26.60
2009,09,12,17,02,26.60
2009,09,12,17,03,26.60
2009,09,12,17,04,26.40
2009,09,12,17,05,26.40
2009,09,12,17,06,26.40
2009,09,12,17,07,26.30
2009,09,12,17,08,26.20
2009,09,12,17,09,26.10
2009,09,12,17,10,26.00
2009,09,12,17,11,25.90
2009,09,12,17,12,25.90
2009,09,12,17,13,25.80
2009,09,12,17,14,25.80
2009,09,12,17,15,25.70
2009,09,12,17,16,25.70
2009,09,12,17,17,25.60
2009,09,12,17,18,25.60
2009,09,12,17,19,25.60